Flag for United Kingdom Weather past 2 weeks in Reading, England, United Kingdom

Now
50 °F

Passing clouds.


Feels Like: 44 °F
Forecast: 40 / 50 °F
Wind: 17 mph from West

Location: Benson

Current Time: Mar 31, 2015 at 7:08:14 AM

Latest Report: Mar 31, 2015 at 5:50 AM


Visibility: N/A

Pressure: 29.53 "Hg

Humidity: 67%

Dew point: 39 °F

Location of ReadingLocation

Historic Weather in Reading — Graph

°F

Reading temperature yesterday

Maximum temperature yesterday: 52 °F (at 9:50 PM)
Minimum temperature yesterday: 41 °F (at 4:50 AM)
Average temperature yesterday: 47 °F

Past Weeks' High & Low Weather Summary

 TemperatureHumidityPressure
High57 °F (Mar 28, 10:50 AM)100% (Mar 16, 5:50 AM)30.54 "Hg (Mar 16, 5:50 AM)
Low25 °F (Mar 25, 5:50 AM)40% (Mar 24, 2:50 PM)29.36 "Hg (Mar 29, 1:50 PM)
Average44 °F80%30.05 "Hg
* Reported Mar 16 4:50 AM — Mar 31 5:50 AM, Reading, Weather by CustomWeather, © 2015

Note: Actual official high and low records may vary slightly from our data, if they occured in-between our weather recording intervals... More about our weather records

Advertising

Reading weather history for previous 24 hours

 ConditionsComfort  
Time TempWeatherWind HumidityBarometerVisibility
5:50 AM
Tue, Mar 31
50 °FPassing clouds.17 mph67%29.53 "HgN/A
4:50 AM50 °FSprinkles. Passing clouds.18 mph76%29.47 "HgN/A
3:50 AM50 °FPassing clouds.24 mph94%29.45 "HgN/A
2:50 AM52 °FPassing clouds.28 mph82%29.42 "HgN/A
1:50 AM54 °FOvercast.31 mph82%29.45 "HgN/A
12:50 AM54 °FDrizzle. Overcast.23 mph88%29.45 "Hg5 mi
11:50 PM
Mon, Mar 30
52 °FDrizzle. Overcast.23 mph94%29.47 "HgN/A
10:50 PM52 °FOvercast.18 mph94%29.53 "HgN/A
9:50 PM52 °FLow clouds.21 mph94%29.56 "HgN/A
8:50 PM50 °FPartly cloudy.18 mph94%29.59 "Hg4 mi
7:50 PM46 °FPartly sunny.21 mph100%29.62 "Hg4 mi
6:50 PM46 °FLight rain. More clouds than sun.13 mph93%29.71 "HgN/A
5:50 PM48 °FLight rain. Overcast.15 mph82%29.74 "HgN/A
4:50 PM48 °FLight rain. Overcast.12 mph71%29.80 "HgN/A
3:50 PM50 °FCloudy.17 mph58%29.83 "HgN/A
2:50 PM50 °FMostly cloudy.15 mph58%29.86 "HgN/A
1:50 PM50 °FBroken clouds.14 mph54%29.86 "HgN/A
12:50 PM48 °FBroken clouds.12 mph58%29.86 "HgN/A
11:50 AM48 °FPartly sunny.12 mph54%29.89 "HgN/A
10:50 AM46 °FScattered clouds.13 mph57%29.86 "HgN/A
9:50 AM46 °FPassing clouds.16 mph62%29.86 "HgN/A
8:50 AM45 °FPassing clouds.12 mph71%29.80 "HgN/A
7:50 AM41 °FPassing clouds.12 mph81%29.77 "HgN/A
Weather by CustomWeather, © 2015

See weather overviewHow to use our weather pages